status,avgMeasuredTime,avgSpeed,extID,medianMeasuredTime,TIMESTAMP,vehicleCount,_id,REPORT_ID
OK,223,47,801,223,2014-08-01T07:55:00,2,20746525,201696
OK,251,42,801,251,2014-08-01T08:00:00,1,20746856,201696
OK,157,67,801,157,2014-08-01T08:05:00,3,20747305,201696
OK,183,58,801,183,2014-08-01T08:10:00,8,20747678,201696
OK,185,57,801,185,2014-08-01T08:15:00,5,20748127,201696
OK,144,73,801,144,2014-08-01T08:20:00,1,20748576,201696
OK,158,67,801,158,2014-08-01T08:25:00,3,20749025,201696
OK,203,52,801,203,2014-08-01T08:30:00,6,20749474,201696
OK,219,48,801,219,2014-08-01T08:35:00,7,20749923,201696
OK,161,65,801,161,2014-08-01T08:40:00,4,20750372,201696
OK,134,79,801,134,2014-08-01T08:45:00,3,20750821,201696
OK,150,70,801,150,2014-08-01T08:50:00,2,20751270,201696
OK,166,63,801,166,2014-08-01T08:55:00,1,20751719,201696
OK,262,40,801,262,2014-08-01T09:00:00,4,20752168,201696
OK,218,48,801,218,2014-08-01T09:05:00,7,20752617,201696
OK,144,73,801,144,2014-08-01T09:10:00,3,20753066,201696
OK,203,52,801,203,2014-08-01T09:15:00,3,20753515,201696
OK,202,52,801,202,2014-08-01T09:20:00,4,20753964,201696
OK,213,49,801,213,2014-08-01T09:25:00,4,20754413,201696
OK,185,57,801,185,2014-08-01T09:30:00,5,20754862,201696
OK,224,47,801,224,2014-08-01T09:35:00,1,20755311,201696
OK,170,62,801,170,2014-08-01T09:40:00,5,20755760,201696
OK,147,72,801,147,2014-08-01T09:45:00,10,20756209,201696
OK,168,63,801,168,2014-08-01T09:50:00,5,20756658,201696
OK,186,57,801,186,2014-08-01T09:55:00,7,20757107,201696
OK,186,57,801,186,2014-08-01T10:00:00,1,20757556,201696
OK,186,57,801,186,2014-08-01T10:05:00,0,20758005,201696
OK,149,71,801,149,2014-08-01T10:10:00,4,20758454,201696
OK,149,71,801,149,2014-08-01T10:15:00,4,20758903,201696
OK,220,48,801,220,2014-08-01T10:20:00,4,20759352,201696
OK,210,50,801,210,2014-08-01T10:25:00,9,20759801,201696
OK,208,51,801,208,2014-08-01T10:30:00,5,20760250,201696
OK,186,57,801,186,2014-08-01T10:35:00,5,20760699,201696
OK,191,55,801,191,2014-08-01T10:40:00,2,20761148,201696
OK,195,54,801,195,2014-08-01T10:45:00,1,20761597,201696
OK,192,55,801,192,2014-08-01T10:50:00,1,20762046,201696
OK,192,55,801,192,2014-08-01T10:55:00,1,20762495,201696
OK,196,54,801,196,2014-08-01T11:00:00,1,20762944,201696
OK,189,56,801,189,2014-08-01T11:05:00,2,20763393,201696
OK,157,67,801,157,2014-08-01T11:10:00,2,20763842,201696
OK,177,59,801,177,2014-08-01T11:15:00,5,20764290,201696
OK,177,59,801,177,2014-08-01T11:20:00,7,20764739,201696
OK,159,66,801,159,2014-08-01T11:25:00,3,20765188,201696
OK,175,60,801,175,2014-08-01T11:30:00,2,20765637,201696
OK,188,56,801,188,2014-08-01T11:35:00,5,20766086,201696
OK,168,63,801,168,2014-08-01T11:40:00,6,20766535,201696
OK,158,67,801,158,2014-08-01T11:45:00,2,20766984,201696
OK,156,68,801,156,2014-08-01T11:50:00,1,20767433,201696
OK,186,57,801,186,2014-08-01T11:55:00,5,20767882,201696
OK,181,58,801,181,2014-08-01T12:00:00,7,20768331,201696
OK,181,58,801,181,2014-08-01T12:05:00,7,20768780,201696
OK,170,62,801,170,2014-08-01T12:10:00,7,20769229,201696
OK,142,74,801,142,2014-08-01T12:15:00,4,20769678,201696
OK,225,47,801,225,2014-08-01T12:20:00,3,20770127,201696
OK,214,49,801,214,2014-08-01T12:25:00,4,20770576,201696
OK,171,62,801,171,2014-08-01T12:30:00,7,20771025,201696
OK,169,62,801,169,2014-08-01T12:35:00,6,20771474,201696
OK,168,63,801,168,2014-08-01T12:40:00,1,20771923,201696
OK,167,63,801,167,2014-08-01T12:45:00,1,20772372,201696
OK,167,63,801,167,2014-08-01T12:50:00,1,20772821,201696
OK,218,48,801,218,2014-08-01T12:55:00,1,20773270,201696
OK,199,53,801,199,2014-08-01T13:00:00,2,20773719,201696
OK,181,58,801,181,2014-08-01T13:05:00,1,20774168,201696
OK,163,65,801,163,2014-08-01T13:10:00,2,20774617,201696
OK,169,62,801,169,2014-08-01T13:15:00,9,20775066,201696
OK,174,61,801,174,2014-08-01T13:20:00,9,20775515,201696
OK,193,55,801,193,2014-08-01T13:25:00,7,20775964,201696
OK,186,57,801,186,2014-08-01T13:30:00,7,20776413,201696
OK,160,66,801,160,2014-08-01T13:35:00,4,20776862,201696
OK,184,57,801,184,2014-08-01T13:40:00,2,20777311,201696
OK,220,48,801,220,2014-08-01T13:45:00,0,20777760,201696
OK,220,48,801,220,2014-08-01T13:50:00,0,20778209,201696
OK,197,53,801,197,2014-08-01T13:55:00,3,20778658,201696
OK,188,56,801,188,2014-08-01T14:00:00,6,20779107,201696
OK,160,66,801,160,2014-08-01T14:05:00,3,20779556,201696
OK,195,54,801,195,2014-08-01T14:10:00,1,20780005,201696
OK,149,71,801,149,2014-08-01T14:15:00,5,20780454,201696
OK,149,71,801,149,2014-08-01T14:20:00,3,20780903,201696
OK,151,70,801,151,2014-08-01T14:25:00,2,20781352,201696
OK,159,66,801,159,2014-08-01T14:30:00,3,20781801,201696
OK,169,62,801,169,2014-08-01T14:35:00,4,20782250,201696
OK,167,63,801,167,2014-08-01T14:40:00,5,20782699,201696
OK,167,63,801,167,2014-08-01T14:45:00,5,20783148,201696
OK,151,70,801,151,2014-08-01T14:50:00,3,20783597,201696
OK,151,70,801,151,2014-08-01T14:55:00,2,20784046,201696
OK,126,84,801,126,2014-08-01T15:00:00,1,20784495,201696
OK,177,59,801,177,2014-08-01T15:05:00,5,20784944,201696
OK,185,57,801,185,2014-08-01T15:10:00,8,20785393,201696
OK,192,55,801,192,2014-08-01T15:15:00,5,20785842,201696
OK,192,55,801,192,2014-08-01T15:20:00,3,20786291,201696
OK,174,61,801,174,2014-08-01T15:25:00,2,20786740,201696
OK,189,56,801,189,2014-08-01T15:30:00,2,20787189,201696
OK,197,53,801,197,2014-08-01T15:35:00,2,20787638,201696
OK,189,56,801,189,2014-08-01T15:40:00,1,20788087,201696
OK,162,65,801,162,2014-08-01T15:45:00,2,20788536,201696
OK,147,72,801,147,2014-08-01T15:50:00,5,20788985,201696
OK,152,69,801,152,2014-08-01T15:55:00,6,20789434,201696
OK,177,59,801,177,2014-08-01T16:00:00,4,20789883,201696
OK,165,64,801,165,2014-08-01T16:05:00,2,20790332,201696
OK,210,50,801,210,2014-08-01T16:10:00,3,20790781,201696
OK,201,52,801,201,2014-08-01T16:15:00,4,20791230,201696
OK,193,55,801,193,2014-08-01T16:20:00,3,20791679,201696
OK,119,89,801,119,2014-08-01T16:25:00,1,20792128,201696
OK,119,89,801,119,2014-08-01T16:30:00,0,20792577,201696
OK,156,68,801,156,2014-08-01T16:35:00,1,20793026,201696
OK,182,58,801,182,2014-08-01T16:40:00,2,20793475,201696
OK,193,55,801,193,2014-08-01T16:45:00,2,20793924,201696
OK,179,59,801,179,2014-08-01T16:50:00,1,20794373,201696
OK,179,59,801,179,2014-08-01T16:55:00,0,20794822,201696
OK,151,70,801,151,2014-08-01T17:00:00,1,20795271,201696
OK,151,70,801,151,2014-08-01T17:05:00,1,20795720,201696
OK,151,70,801,151,2014-08-01T17:10:00,0,20796169,201696
OK,151,70,801,151,2014-08-01T17:15:00,0,20796618,201696
OK,153,69,801,153,2014-08-01T17:20:00,1,20797067,201696
OK,153,69,801,153,2014-08-01T17:25:00,1,20797516,201696
OK,153,69,801,153,2014-08-01T17:30:00,0,20797965,201696
OK,126,84,801,126,2014-08-01T17:35:00,2,20798414,201696
OK,171,62,801,171,2014-08-01T17:40:00,3,20798863,201696
OK,171,62,801,171,2014-08-01T17:45:00,3,20799312,201696
OK,128,82,801,128,2014-08-01T17:50:00,1,20799761,201696
OK,128,82,801,128,2014-08-01T17:55:00,0,20800210,201696
OK,128,82,801,128,2014-08-01T18:00:00,0,20800659,201696
OK,125,84,801,125,2014-08-01T18:05:00,2,20801108,201696
OK,137,77,801,137,2014-08-01T18:10:00,1,20801557,201696
OK,137,77,801,137,2014-08-01T18:15:00,0,20802006,201696
OK,134,79,801,134,2014-08-01T18:20:00,1,20802455,201696
OK,165,64,801,165,2014-08-01T18:25:00,2,20802904,201696
OK,196,54,801,196,2014-08-01T18:30:00,1,20803353,201696
OK,196,54,801,196,2014-08-01T18:35:00,0,20803802,201696
OK,196,54,801,196,2014-08-01T18:40:00,0,20804251,201696
OK,106,100,801,106,2014-08-01T18:45:00,1,20804700,201696
OK,106,100,801,106,2014-08-01T18:50:00,0,20805149,201696
OK,106,100,801,106,2014-08-01T18:55:00,0,20805598,201696
OK,184,57,801,184,2014-08-01T19:00:00,1,20806047,201696
OK,184,57,801,184,2014-08-01T19:05:00,1,20806496,201696
OK,220,48,801,220,2014-08-01T19:10:00,1,20806945,201696
OK,220,48,801,220,2014-08-01T19:15:00,0,20807394,201696
OK,176,60,801,176,2014-08-01T19:20:00,1,20807843,201696
OK,165,64,801,165,2014-08-01T19:25:00,3,20808292,201696
OK,143,74,801,143,2014-08-01T19:30:00,1,20808741,201696
OK,172,61,801,172,2014-08-01T19:35:00,1,20809190,201696
OK,166,63,801,166,2014-08-01T19:40:00,2,20809639,201696
OK,157,67,801,157,2014-08-01T19:45:00,2,20810088,201696
OK,153,69,801,153,2014-08-01T19:50:00,1,20810537,201696
OK,187,56,801,187,2014-08-01T19:55:00,2,20810986,201696
OK,135,78,801,135,2014-08-01T22:00:00,0,20816715,201696
OK,135,78,801,135,2014-08-01T22:05:00,0,20817164,201696
OK,137,77,801,137,2014-08-01T22:10:00,2,20817486,201696
OK,206,51,801,206,2014-08-02T00:00:00,0,20823154,201696
OK,206,51,801,206,2014-08-02T00:05:00,0,20823603,201696
OK,206,51,801,206,2014-08-02T00:10:00,0,20824052,201696
OK,206,51,801,206,2014-08-02T00:15:00,0,20824501,201696
OK,206,51,801,206,2014-08-02T00:20:00,0,20824950,201696
OK,206,51,801,206,2014-08-02T00:25:00,0,20825399,201696
OK,206,51,801,206,2014-08-02T00:30:00,0,20825848,201696
OK,206,51,801,206,2014-08-02T00:35:00,0,20826297,201696
OK,206,51,801,206,2014-08-02T00:40:00,0,20826746,201696
OK,130,81,801,130,2014-08-02T00:45:00,1,20827195,201696
OK,130,81,801,130,2014-08-02T00:50:00,0,20827644,201696
OK,130,81,801,130,2014-08-02T00:55:00,0,20828093,201696
OK,130,81,801,130,2014-08-02T01:00:00,0,20828542,201696
OK,130,81,801,130,2014-08-02T01:05:00,0,20828991,201696
OK,130,81,801,130,2014-08-02T01:10:00,0,20829440,201696
OK,130,81,801,130,2014-08-02T01:15:00,0,20829889,201696
OK,177,59,801,177,2014-08-02T01:20:00,1,20830338,201696
OK,141,75,801,141,2014-08-02T01:25:00,1,20830787,201696
OK,141,75,801,141,2014-08-02T01:30:00,0,20831236,201696
OK,141,75,801,141,2014-08-02T01:35:00,0,20831685,201696
OK,141,75,801,141,2014-08-02T01:40:00,0,20832134,201696
OK,141,75,801,141,2014-08-02T01:45:00,0,20832583,201696
OK,141,75,801,141,2014-08-02T01:50:00,0,20833032,201696
OK,141,75,801,141,2014-08-02T01:55:00,0,20833481,201696
OK,141,75,801,141,2014-08-02T02:00:00,0,20833930,201696
OK,141,75,801,141,2014-08-02T02:05:00,0,20834379,201696
OK,141,75,801,141,2014-08-02T02:10:00,0,20834828,201696
OK,141,75,801,141,2014-08-02T02:15:00,0,20835277,201696
OK,222,47,801,222,2014-08-02T02:20:00,1,20835726,201696
OK,222,47,801,222,2014-08-02T02:25:00,0,20836175,201696
OK,222,47,801,222,2014-08-02T02:30:00,0,20836624,201696
OK,222,47,801,222,2014-08-02T02:35:00,0,20837073,201696
OK,98,108,801,98,2014-08-02T02:40:00,1,20837522,201696
OK,98,108,801,98,2014-08-02T02:45:00,0,20837971,201696
OK,98,108,801,98,2014-08-02T02:50:00,0,20838420,201696
OK,98,108,801,98,2014-08-02T02:55:00,0,20838869,201696
OK,98,108,801,98,2014-08-02T03:00:00,0,20839318,201696
OK,98,108,801,98,2014-08-02T03:05:00,0,20839767,201696
OK,98,108,801,98,2014-08-02T03:10:00,0,20840216,201696
OK,98,108,801,98,2014-08-02T03:15:00,0,20840665,201696
OK,98,108,801,98,2014-08-02T03:20:00,0,20841114,201696
OK,98,108,801,98,2014-08-02T03:25:00,0,20841563,201696
OK,98,108,801,98,2014-08-02T03:30:00,0,20842012,201696
OK,98,108,801,98,2014-08-02T03:35:00,0,20842461,201696
OK,98,108,801,98,2014-08-02T03:40:00,0,20842910,201696
OK,146,72,801,146,2014-08-02T03:45:00,2,20843359,201696
OK,134,79,801,134,2014-08-02T03:50:00,1,20843808,201696
OK,134,79,801,134,2014-08-02T03:55:00,0,20844257,201696
OK,134,79,801,134,2014-08-02T04:20:00,0,20845703,201696
OK,134,79,801,134,2014-08-02T04:25:00,0,20846259,201696
OK,162,65,801,162,2014-08-02T04:35:00,1,20846626,201696
OK,198,53,801,198,2014-08-02T04:45:00,2,20847268,201696
OK,198,53,801,198,2014-08-02T04:50:00,2,20847634,201696
OK,160,66,801,160,2014-08-02T05:40:00,2,20850495,201696
OK,160,66,801,160,2014-08-02T05:50:00,0,20851154,201696
OK,151,70,801,151,2014-08-02T06:00:00,4,20851711,201696
OK,155,68,801,155,2014-08-02T06:05:00,6,20852160,201696
OK,214,49,801,214,2014-08-02T06:10:00,2,20852609,201696
OK,214,49,801,214,2014-08-02T06:15:00,0,20853058,201696
OK,177,59,801,177,2014-08-02T06:20:00,2,20853507,201696
OK,177,59,801,177,2014-08-02T06:25:00,2,20853956,201696
OK,141,75,801,141,2014-08-02T06:30:00,1,20854405,201696
OK,141,75,801,141,2014-08-02T06:35:00,0,20854854,201696
OK,141,75,801,141,2014-08-02T06:40:00,0,20855303,201696
OK,190,55,801,190,2014-08-02T06:45:00,2,20855752,201696
OK,213,49,801,213,2014-08-02T06:50:00,1,20856201,201696
OK,213,49,801,213,2014-08-02T06:55:00,0,20856650,201696
OK,213,49,801,213,2014-08-02T07:00:00,0,20857099,201696
OK,129,82,801,129,2014-08-02T07:05:00,1,20857548,201696
OK,129,82,801,129,2014-08-02T07:10:00,0,20857997,201696
OK,198,53,801,198,2014-08-02T07:15:00,1,20858446,201696
OK,198,53,801,198,2014-08-02T07:20:00,0,20858895,201696
OK,198,53,801,198,2014-08-02T07:25:00,0,20859344,201696
OK,142,74,801,142,2014-08-02T07:30:00,1,20859793,201696
OK,142,74,801,142,2014-08-02T07:35:00,1,20860242,201696
OK,170,62,801,170,2014-08-02T07:40:00,1,20860691,201696
OK,170,62,801,170,2014-08-02T07:45:00,1,20861140,201696
OK,160,66,801,160,2014-08-02T07:50:00,1,20861589,201696
OK,145,73,801,145,2014-08-02T07:55:00,2,20862038,201696
OK,149,71,801,149,2014-08-02T08:00:00,2,20862487,201696
OK,149,71,801,149,2014-08-02T08:05:00,2,20862936,201696
OK,203,52,801,203,2014-08-02T08:10:00,1,20863385,201696
OK,180,58,801,180,2014-08-02T08:15:00,2,20863834,201696
OK,169,62,801,169,2014-08-02T08:20:00,3,20864283,201696
OK,169,62,801,169,2014-08-02T08:25:00,1,20864732,201696
OK,231,45,801,231,2014-08-02T08:30:00,1,20865181,201696
OK,174,61,801,174,2014-08-02T08:35:00,4,20865630,201696
OK,182,58,801,182,2014-08-02T08:40:00,3,20866079,201696
OK,196,54,801,196,2014-08-02T08:45:00,0,20866528,201696
OK,196,54,801,196,2014-08-02T08:50:00,0,20866977,201696
OK,207,51,801,207,2014-08-02T08:55:00,1,20867426,201696
OK,206,51,801,206,2014-08-02T09:00:00,2,20867875,201696
OK,206,51,801,206,2014-08-02T09:05:00,1,20868324,201696
OK,206,51,801,206,2014-08-02T09:10:00,0,20868773,201696
OK,137,77,801,137,2014-08-02T09:15:00,3,20869222,201696
OK,146,72,801,146,2014-08-02T09:20:00,5,20869671,201696
OK,147,72,801,147,2014-08-02T09:25:00,2,20870120,201696
OK,147,72,801,147,2014-08-02T09:30:00,0,20870569,201696
OK,234,45,801,234,2014-08-02T09:35:00,1,20871018,201696
OK,203,52,801,203,2014-08-02T09:40:00,4,20871467,201696
OK,207,51,801,207,2014-08-02T09:45:00,2,20871916,201696
OK,197,53,801,197,2014-08-02T09:50:00,3,20872365,201696
OK,185,57,801,185,2014-08-02T09:55:00,5,20872814,201696
OK,185,57,801,185,2014-08-02T10:00:00,3,20873263,201696
OK,138,76,801,138,2014-08-02T10:05:00,3,20873712,201696
OK,152,69,801,152,2014-08-02T10:10:00,5,20874161,201696
OK,152,69,801,152,2014-08-02T10:15:00,2,20874610,201696
OK,141,75,801,141,2014-08-02T10:20:00,1,20875059,201696
OK,181,58,801,181,2014-08-02T10:25:00,4,20875508,201696
OK,172,61,801,172,2014-08-02T10:30:00,6,20875957,201696
OK,184,57,801,184,2014-08-02T10:35:00,4,20876406,201696
OK,184,57,801,184,2014-08-02T10:40:00,4,20876855,201696
OK,181,58,801,181,2014-08-02T10:45:00,4,20877304,201696
OK,189,56,801,189,2014-08-02T10:50:00,3,20877753,201696
OK,189,56,801,189,2014-08-02T10:55:00,1,20878202,201696
OK,189,56,801,189,2014-08-02T11:00:00,1,20878651,201696
OK,189,56,801,189,2014-08-02T11:05:00,1,20879100,201696
OK,148,71,801,148,2014-08-02T11:10:00,1,20879549,201696
OK,179,59,801,179,2014-08-02T11:15:00,5,20879998,201696
OK,194,54,801,194,2014-08-02T11:20:00,6,20880447,201696
OK,137,77,801,137,2014-08-02T11:25:00,1,20880896,201696
OK,137,77,801,137,2014-08-02T11:30:00,0,20881345,201696
OK,146,72,801,146,2014-08-02T11:35:00,1,20881794,201696
OK,178,59,801,178,2014-08-02T11:40:00,5,20882243,201696
OK,184,57,801,184,2014-08-02T11:45:00,1,20882692,201696
OK,143,74,801,143,2014-08-02T11:50:00,3,20883141,201696
OK,143,74,801,143,2014-08-02T11:55:00,3,20883590,201696
OK,180,58,801,180,2014-08-02T12:00:00,2,20884039,201696
OK,160,66,801,160,2014-08-02T12:05:00,4,20884488,201696
OK,164,64,801,164,2014-08-02T12:10:00,4,20884937,201696
OK,198,53,801,198,2014-08-02T12:15:00,0,20885386,201696
OK,203,52,801,203,2014-08-02T12:20:00,2,20885835,201696
OK,188,56,801,188,2014-08-02T12:25:00,4,20886284,201696
OK,183,58,801,183,2014-08-02T12:30:00,3,20886733,201696
OK,214,49,801,214,2014-08-02T12:35:00,3,20887182,201696
OK,215,49,801,215,2014-08-02T12:40:00,2,20887631,201696
OK,184,57,801,184,2014-08-02T12:45:00,3,20888080,201696
OK,184,57,801,184,2014-08-02T12:50:00,3,20888529,201696
OK,193,55,801,193,2014-08-02T12:55:00,1,20888978,201696
OK,164,64,801,164,2014-08-02T13:00:00,2,20889427,201696
OK,176,60,801,176,2014-08-02T13:05:00,3,20889876,201696
OK,183,58,801,183,2014-08-02T13:10:00,4,20890325,201696
OK,191,55,801,191,2014-08-02T13:15:00,1,20890774,201696
OK,174,61,801,174,2014-08-02T13:20:00,2,20891223,201696
OK,207,51,801,207,2014-08-02T13:25:00,1,20891672,201696
OK,179,59,801,179,2014-08-02T13:30:00,1,20892121,201696
OK,147,72,801,147,2014-08-02T13:35:00,3,20892570,201696
OK,157,67,801,157,2014-08-02T13:40:00,5,20893019,201696
OK,190,55,801,190,2014-08-02T13:45:00,5,20893468,201696
OK,135,78,801,135,2014-08-02T13:50:00,1,20893917,201696
OK,135,78,801,135,2014-08-02T13:55:00,0,20894366,201696
OK,196,54,801,196,2014-08-02T14:00:00,1,20894815,201696
OK,184,57,801,184,2014-08-02T14:05:00,2,20895264,201696
OK,172,61,801,172,2014-08-02T14:10:00,1,20895713,201696
OK,151,70,801,151,2014-08-02T14:15:00,1,20896162,201696
OK,151,70,801,151,2014-08-02T14:20:00,1,20896611,201696
OK,172,61,801,172,2014-08-02T14:25:00,1,20897060,201696
OK,172,61,801,172,2014-08-02T14:30:00,1,20897509,201696
OK,187,56,801,187,2014-08-02T14:35:00,1,20897958,201696
OK,187,56,801,187,2014-08-02T14:40:00,0,20898407,201696
OK,187,56,801,187,2014-08-02T14:45:00,0,20898856,201696
OK,143,74,801,143,2014-08-02T14:50:00,2,20899305,201696
OK,143,74,801,143,2014-08-02T14:55:00,2,20899754,201696
OK,187,56,801,187,2014-08-02T15:00:00,3,20900203,201696
OK,187,56,801,187,2014-08-02T15:05:00,3,20900652,201696
OK,162,65,801,162,2014-08-02T15:10:00,2,20901101,201696
OK,185,57,801,185,2014-08-02T15:15:00,5,20901550,201696
OK,185,57,801,185,2014-08-02T15:20:00,1,20901999,201696
OK,150,70,801,150,2014-08-02T15:25:00,1,20902448,201696
OK,150,70,801,150,2014-08-02T15:30:00,1,20902897,201696
OK,150,70,801,150,2014-08-02T15:35:00,0,20903346,201696
OK,183,58,801,183,2014-08-02T15:40:00,3,20903795,201696
OK,183,58,801,183,2014-08-02T15:45:00,3,20904244,201696
OK,216,49,801,216,2014-08-02T15:50:00,2,20904693,201696
OK,211,50,801,211,2014-08-02T15:55:00,5,20905142,201696
OK,178,59,801,178,2014-08-02T16:00:00,7,20905591,201696
OK,177,59,801,177,2014-08-02T16:05:00,6,20906040,201696
OK,154,68,801,154,2014-08-02T16:10:00,2,20906489,201696
OK,180,58,801,180,2014-08-02T16:15:00,0,20906938,201696
OK,197,53,801,197,2014-08-02T16:20:00,1,20907387,201696
OK,182,58,801,182,2014-08-02T16:25:00,4,20907836,201696
OK,124,85,801,124,2014-08-02T16:30:00,1,20908285,201696
OK,205,51,801,205,2014-08-02T16:35:00,1,20908734,201696
OK,205,51,801,205,2014-08-02T16:40:00,1,20909183,201696
OK,205,51,801,205,2014-08-02T16:45:00,0,20909632,201696
OK,205,51,801,205,2014-08-02T16:50:00,0,20910081,201696
OK,168,63,801,168,2014-08-02T16:55:00,1,20910530,201696
OK,168,63,801,168,2014-08-02T17:00:00,1,20910979,201696
OK,168,63,801,168,2014-08-02T17:05:00,0,20911428,201696
OK,168,63,801,168,2014-08-02T17:10:00,0,20911877,201696
OK,168,63,801,168,2014-08-02T17:15:00,0,20912326,201696
OK,150,70,801,150,2014-08-02T17:20:00,1,20912775,201696
OK,150,70,801,150,2014-08-02T17:25:00,1,20913224,201696
OK,142,74,801,142,2014-08-02T17:30:00,1,20913673,201696
OK,134,79,801,134,2014-08-02T17:35:00,2,20914122,201696
OK,136,78,801,136,2014-08-02T17:40:00,3,20914571,201696
OK,168,63,801,168,2014-08-02T17:45:00,2,20915020,201696
OK,154,68,801,154,2014-08-02T17:50:00,2,20915469,201696
OK,203,52,801,203,2014-08-02T17:55:00,1,20915918,201696
OK,203,52,801,203,2014-08-02T18:00:00,0,20916367,201696
OK,177,59,801,177,2014-08-02T18:05:00,1,20916816,201696
OK,182,58,801,182,2014-08-02T18:10:00,3,20917265,201696
OK,212,50,801,212,2014-08-02T18:15:00,1,20917714,201696
OK,212,50,801,212,2014-08-02T18:20:00,1,20918163,201696
OK,212,50,801,212,2014-08-02T18:25:00,0,20918612,201696
OK,117,90,801,117,2014-08-02T18:30:00,1,20919061,201696
OK,170,62,801,170,2014-08-02T18:35:00,3,20919510,201696
OK,171,62,801,171,2014-08-02T18:40:00,3,20919959,201696
OK,184,57,801,184,2014-08-02T18:45:00,4,20920408,201696
OK,197,53,801,197,2014-08-02T18:50:00,2,20920857,201696
OK,197,53,801,197,2014-08-02T18:55:00,0,20921306,201696
OK,197,53,801,197,2014-08-02T19:00:00,0,20921755,201696
OK,124,85,801,124,2014-08-02T19:05:00,1,20922204,201696
OK,124,85,801,124,2014-08-02T19:10:00,1,20922653,201696
OK,124,85,801,124,2014-08-02T19:15:00,0,20923102,201696
OK,124,85,801,124,2014-08-02T19:20:00,0,20923551,201696
OK,124,85,801,124,2014-08-02T19:25:00,0,20924000,201696
OK,152,69,801,152,2014-08-02T19:30:00,1,20924449,201696
OK,152,69,801,152,2014-08-02T19:35:00,0,20924898,201696
OK,152,69,801,152,2014-08-02T19:40:00,0,20925347,201696
OK,152,69,801,152,2014-08-02T19:45:00,0,20925796,201696
OK,160,66,801,160,2014-08-02T19:50:00,2,20926245,201696
OK,150,70,801,150,2014-08-02T19:55:00,3,20926694,201696
OK,111,95,801,111,2014-08-02T20:00:00,1,20927143,201696
OK,144,73,801,144,2014-08-02T20:05:00,1,20927592,201696
OK,175,60,801,175,2014-08-02T20:10:00,1,20928041,201696
OK,175,60,801,175,2014-08-02T20:15:00,1,20928490,201696
OK,162,65,801,162,2014-08-02T20:20:00,1,20928939,201696
OK,127,83,801,127,2014-08-02T20:25:00,1,20929388,201696
OK,127,83,801,127,2014-08-02T20:30:00,2,20929837,201696
OK,127,83,801,127,2014-08-02T20:35:00,1,20930286,201696
OK,222,47,801,222,2014-08-02T20:40:00,1,20930735,201696
OK,222,47,801,222,2014-08-02T20:45:00,1,20931184,201696
OK,188,56,801,188,2014-08-02T20:50:00,1,20931633,201696
OK,188,56,801,188,2014-08-02T20:55:00,1,20932082,201696
OK,188,56,801,188,2014-08-02T21:00:00,0,20932531,201696
OK,188,56,801,188,2014-08-02T21:05:00,0,20932980,201696
OK,188,56,801,188,2014-08-02T21:10:00,0,20933429,201696
OK,196,54,801,196,2014-08-02T21:15:00,2,20933878,201696
OK,156,68,801,156,2014-08-02T21:20:00,1,20934327,201696
OK,156,68,801,156,2014-08-02T21:25:00,0,20934776,201696
OK,156,68,801,156,2014-08-02T21:30:00,0,20935225,201696
OK,156,68,801,156,2014-08-02T21:35:00,0,20935674,201696
OK,156,68,801,156,2014-08-02T21:40:00,0,20936123,201696
OK,156,68,801,156,2014-08-02T21:45:00,0,20936572,201696
OK,148,71,801,148,2014-08-02T21:50:00,1,20937021,201696
OK,177,59,801,177,2014-08-02T21:55:00,2,20937470,201696
OK,207,51,801,207,2014-08-02T22:00:00,0,20937919,201696
OK,167,63,801,167,2014-08-02T22:05:00,1,20938368,201696
OK,167,63,801,167,2014-08-02T22:10:00,1,20938817,201696
OK,167,63,801,167,2014-08-02T22:15:00,0,20939266,201696
OK,167,63,801,167,2014-08-02T22:20:00,0,20939715,201696
OK,167,63,801,167,2014-08-02T22:25:00,0,20940164,201696
OK,167,63,801,167,2014-08-02T22:30:00,0,20940613,201696
OK,167,63,801,167,2014-08-02T22:35:00,0,20941062,201696
OK,158,67,801,158,2014-08-02T22:40:00,1,20941511,201696
OK,144,73,801,144,2014-08-02T22:45:00,2,20941960,201696
OK,131,81,801,131,2014-08-02T22:50:00,1,20942409,201696
OK,131,81,801,131,2014-08-02T22:55:00,0,20942858,201696
OK,131,81,801,131,2014-08-02T23:00:00,0,20943307,201696
OK,131,81,801,131,2014-08-02T23:10:00,0,20943756,201696
OK,131,81,801,131,2014-08-02T23:15:00,0,20944205,201696
OK,131,81,801,131,2014-08-02T23:20:00,0,20944654,201696
OK,131,81,801,131,2014-08-02T23:25:00,0,20945103,201696
OK,131,81,801,131,2014-08-02T23:30:00,0,20945552,201696
OK,131,81,801,131,2014-08-02T23:35:00,0,20946001,201696
OK,131,81,801,131,2014-08-02T23:40:00,0,20946450,201696
OK,131,81,801,131,2014-08-02T23:45:00,0,20946899,201696
OK,131,81,801,131,2014-08-02T23:50:00,0,20947348,201696
OK,131,81,801,131,2014-08-02T23:55:00,0,20947797,201696
OK,131,81,801,131,2014-08-03T00:00:00,0,20948246,201696